Regional Weather Roundup
Issued by NWS

Home | Current Version | Previous Version | Text Only | Print | Product List | Glossary Off
Versions: 1 2 3 4 5 6 7 8 9 10 11 12 13 14 15 16 17 18 19 20 21 22 23 24 25 26 27 28 29 30 31 32 33 34 35 36 37 38 39 40 41 42 43 44 45 46 47 48 49 50

000
ASUS43 KLOT 250558
RWRIL

ILLINOIS REGIONAL WEATHER ROUNDUP
NATIONAL WEATHER SERVICE CHICAGO/ROMEOVILLE IL
100 AM CDT FRI APR 25 2014

NOTE: "FAIR" INDICATES FEW OR NO CLOUDS BELOW 12,000 FEET WITH NO
SIGNIFICANT WEATHER AND/OR OBSTRUCTIONS TO VISIBILITY.

* THESE STATIONS ARE NOT UNDER NWS QUALITY CONTROL. THEY ALSO MAY NOT
  REPORT WEATHER SUCH AS PRECIPITATION OR FOG.

ILZ001-002-007-009-015-016-024-250700-
NORTHWEST ILLINOIS

CITY           SKY/WX    TMP DP  RH WIND       PRES   REMARKS
MOLINE         CLOUDY    51  48  89 NW14G23   29.70R
6HR MIN TEMP:  51; 6HR MAX TEMP:  56; 6HR PCP:  0.05;

$$

ILZ003-004-008-010-011-017-018-250700-
NORTH CENTRAL ILLINOIS

CITY           SKY/WX    TMP DP  RH WIND       PRES   REMARKS
ROCKFORD       NOT AVBL
$$

ILZ005-006-012>014-019>023-250700-
NORTHEAST ILLINOIS

CITY           SKY/WX    TMP DP  RH WIND       PRES   REMARKS
CHICAGO-OHARE  LGT RAIN  51  41  68 N3        29.64R
6HR MIN TEMP:  51; 6HR MAX TEMP:  62; 6HR PCP:  0.03;

CHICAGO-MIDWAY LGT RAIN  56  36  47 SE9       29.63S
6HR MIN TEMP:  56; 6HR MAX TEMP:  62; 6HR PCP: TRACE;

AURORA         LGT RAIN  54  41  61 E7        29.64R
6HR MIN TEMP:  54; 6HR MAX TEMP:  61; 6HR PCP:  0.02;

WAUKEGAN       LGT RAIN  44  36  73 E3        29.68R
6HR MIN TEMP:  43; 6HR MAX TEMP:  47; 6HR PCP:  0.07;

DUPAGE AIRPORT RAIN      51  44  77 E3        29.64R
6HR MIN TEMP:  51; 6HR MAX TEMP:  61; 6HR PCP:  0.04;

WHEELING       LGT RAIN  49  38  65 NE6       29.67R
6HR MIN TEMP:  49; 6HR MAX TEMP:  62; 6HR PCP:  0.02;

NORTHERLY ISL    N/A     49  41  74 SE2         N/A
$$

LMZ740>746-250700-
SOUTHERN LAKE MICHIGAN

STATION/POSITION SKY/WX   TEMP    WIND        PRES    VSBY  WAVE
                          AIR SEA DIR/SP/G                  HT/PER
                          (F)     (DEG/KT/KT) (MB)    (MI)  (FT/S)
WAUKEGAN HARBOR            44     120/  9/ 10 1006.4F
HARRISON CRIB              48     110/ 13/ 15   N/A
BURNHAM HARBOR             49      80/  5/  6   N/A
CALUMET HARBOR             56     130/ 10/ 19 1004.3F
MICHIGAN CITY              54     100/ 15/ 23   N/A
$$

ILZ025>027-034>036-040-047-049-050-058-095>099-250700-
WEST-CENTRAL ILLINOIS

CITY           SKY/WX    TMP DP  RH WIND       PRES   REMARKS
$$

ILZ028>032-037-038-041>044-048-051>054-059>061-250700-
CENTRAL ILLINOIS

CITY           SKY/WX    TMP DP  RH WIND       PRES   REMARKS
PEORIA         NOT AVBL
SPRINGFIELD    CLOUDY    58  55  90 W7        29.64R
6HR MIN TEMP:  58; 6HR MAX TEMP:  73; 6HR PCP:  0.15;

TAYLORVILLE    NOT AVBL
$$

ILZ033-039-045-046-055>057-062-063-250700-
EAST-CENTRAL ILLINOIS

CITY           SKY/WX    TMP DP  RH WIND       PRES   REMARKS
MATTOON        RAIN      56  56 100 SE5       29.62F
$$

ILZ079-100>102-250700-
SOUTHWEST ILLINOIS

CITY           SKY/WX    TMP DP  RH WIND       PRES   REMARKS
BELLEVILLE     LGT RAIN  57  57 100 SW8       29.65F
$$

ILZ064>066-069>071-074>076-080>082-084>086-088>090-092>094-250700-
SOUTH-CENTRAL ILLINOIS

CITY           SKY/WX    TMP DP  RH WIND       PRES   REMARKS
CARBONDALE     LGT RAIN  58  56  93 CALM      29.67F
6HR MIN TEMP:  57; 6HR MAX TEMP:  74; 6HR PCP:  1.10;

$$

ILZ067-068-072-073-078-083-087-091-250700-
SOUTHEAST ILLINOIS

CITY           SKY/WX    TMP DP  RH WIND       PRES   REMARKS
$$

ABBREVIATIONS USED IN REMARKS
   TC - TEMPERATURE IN CELSIUS
  WCI - WIND CHILL INDEX
   HX - HEAT INDEX
  VSB - VISIBILITY
$$




USA.gov is the U.S. government's official web portal to all federal, state and local government web resources and services.